Weather in Stord

Norway     59°46′54″N   5°29′56″E
temp.,
°C
wind,
m/s
gust,
m/s
humid.,
%
clouds,
%
prec.,
mm/h
press.,
hPa
HPBL,
m
21 june, mon
mon2123:00+11nnw2394100 3.0 100695
02:00+11nw479333 3.1 1007242
05:00+11nw5108919 0.1 1008480
08:00+11nw59879 0.2 1010419
11:00+12nw687696 0.1 1011291
14:00+12nnw9117681 0.2 1012416
17:00+12nnw111474100 0.0 1012457
20:00+11nnw121581100 0.0 1012438
22 june, tue
tue2223:00+11nnw91383100 0.0 1013370
02:00+10nnw81285100 0.0 1013389
05:00+10nnw688777 0.0 1013342
08:00+10n57825 0.0 1014303
11:00+12nnw45730 0.0 1015110
14:00+13nw68700 0.0 1016177
17:00+12nnw79740 0.0 1017345
20:00+12nnw59760 0.0 1018386
23 june, wed
wed2323:00+11nw48825 0.0 1020347
02:00+10nnw37846 0.0 1020347
05:00+10nnw258434 0.0 1021282
08:00+10n237969 0.0 1021209
11:00+11nnw2374100 0.0 102285
14:00+13nw127425 0.0 1022119
17:00+14wnw236863 0.0 1022177
20:00+14nw236820 0.0 102194
24 june, thu
thu2423:00+12nnw33765 0.0 102227
02:00+11n22795 0.0 102129
05:00+11n11802 0.0 102012
08:00+11nnw00785 0.0 102046
11:00+12se11749 0.0 1019104
14:00+13sw227811 0.0 1019161
17:00+13ssw2284100 0.0 1018169
20:00+14wsw118515 0.0 101765
25 june, fri
fri2523:00+12ese119278 0.0 101735
02:00+12nnw019088 0.0 101611
05:00+12n1188100 0.0 101615
08:00+13nne118538 0.0 101641
11:00+14sw118243 0.0 101774
14:00+15sw117912 0.0 101785
17:00+15nw127818 0.0 101773
20:00+15nnw227734 0.0 101739